Item Display Status Humidity-temperature Sensor

Elevation Above Sea Level: 3 m

 

Deployed Sensor

  • Serial Number: 20351209
  • NDBC Property Number: 43275
  • Start Date: 4/17/2020 (11:11:26 Z)
  • End Date: Currently Active
Relative Humidity [%]     6 entries per hour
Showing data from 10/1/2020 (23:00:00 Z) to 9/30/2020 (00:00:01 Z)
Previous Next [ Day | 3-Days | 7-Days ]
First Last
Prev [ Day | 3-Days | 7-Days ] Next
First Last

Start Time:     :
End Time:     :     
Time (in GMT) :00 :50 :40 :30 :20 :10
Previous Next [ Day | 3-Days | 7-Days ]
First Last
Prev [ Day | 3-Days | 7-Days ] Next
First Last


123 => good data
MM => data is determined as missing
-- => data not received/configured
Back to Top Back to Top
10/1/2020 23:00 to 22:10 88.87 88.89 88.80 87.98 88.93 88.17
10/1/2020 22:00 to 21:10 87.69 89.03 88.74 91.47 89.20 88.06
10/1/2020 21:00 to 20:10 87.77 87.44 88.06 90.60 91.45 90.48
10/1/2020 20:00 to 19:10 88.72 89.36 88.76 89.05 88.29 87.96
10/1/2020 19:00 to 18:10 88.33 88.83 90.33 92.35 92.21 88.76
10/1/2020 18:00 to 17:10 90.39 90.54 90.62 91.30 91.74 90.37
10/1/2020 17:00 to 16:10 91.34 92.99 97.20 97.82 96.48 90.91
10/1/2020 16:00 to 15:10 88.37 90.15 88.68 88.89 87.98 87.01
10/1/2020 15:00 to 14:10 88.29 87.50 89.94 91.36 89.36 87.24
10/1/2020 14:00 to 13:10 88.33 88.66 88.14 87.53 88.56 89.88
10/1/2020 13:00 to 12:10 92.31 93.04 92.35 89.92 88.78 88.50
10/1/2020 12:00 to 11:10 87.26 88.08 87.69 86.99 87.96 88.47
10/1/2020 11:00 to 10:10 89.53 90.72 92.68 88.39 88.02 88.14
10/1/2020 10:00 to 9:10 88.25 86.72 85.19 86.41 86.31 86.87
10/1/2020 09:00 to 8:10 86.53 87.11 86.68 85.57 86.12 85.87
10/1/2020 08:00 to 7:10 86.08 86.31 86.12 86.33 86.08 86.31
10/1/2020 07:00 to 6:10 86.70 85.98 86.37 85.75 86.39 86.12
10/1/2020 06:00 to 5:10 85.71 85.75 87.01 86.27 86.93 86.62
10/1/2020 05:00 to 4:10 86.80 86.27 85.83 87.17 86.89 86.70
10/1/2020 04:00 to 3:10 85.94 85.50 85.61 86.20 85.77 84.72
10/1/2020 03:00 to 2:10 85.59 84.60 84.70 85.52 85.32 85.03
10/1/2020 02:00 to 1:10 85.32 85.54 85.13 85.42 85.21 85.94
10/1/2020 01:00 to 0:10 85.69 85.05 85.13 86.31 86.39 86.31
10/1/2020 00:00 to 23:10 86.70 86.53 86.02 86.60 85.77 85.96
9/30/2020 23:00 to 22:10 85.57 86.97 86.04 85.73 85.36 85.11
9/30/2020 22:00 to 21:10 84.31 86.49 86.16 85.42 85.11 85.81
9/30/2020 21:00 to 20:10 84.66 85.75 85.54 85.98 84.31 86.82
9/30/2020 20:00 to 19:10 87.65 86.93 87.48 87.48 86.97 86.06
9/30/2020 19:00 to 18:10 86.35 85.42 84.55 85.05 85.21 85.34
9/30/2020 18:00 to 17:10 85.81 85.71 86.64 87.05 87.36 87.71
9/30/2020 17:00 to 16:10 86.10 86.35 86.60 86.45 87.24 86.08
9/30/2020 16:00 to 15:10 85.59 85.69 84.74 85.32 86.04 85.36
9/30/2020 15:00 to 14:10 85.28 85.28 86.58 84.99 85.21 85.42
9/30/2020 14:00 to 13:10 85.85 87.05 85.44 84.99 85.81 85.48
9/30/2020 13:00 to 12:10 87.07 87.07 86.76 87.03 86.87 87.30
9/30/2020 12:00 to 11:10 86.74 87.61 86.76 86.02 86.66 86.35
9/30/2020 11:00 to 10:10 86.58 86.91 86.80 86.66 87.01 88.06
9/30/2020 10:00 to 9:10 87.90 85.87 86.29 86.76 86.14 85.61
9/30/2020 09:00 to 8:10 86.43 85.83 86.84 88.00 87.77 87.53
9/30/2020 08:00 to 7:10 87.48 87.75 87.48 86.82 86.97 86.82
9/30/2020 07:00 to 6:10 86.51 86.68 86.16 86.95 87.55 87.90
9/30/2020 06:00 to 5:10 88.12 88.54 88.25 88.33 88.17 87.61
9/30/2020 05:00 to 4:10 89.13 89.07 88.76 88.39 87.48 86.78
9/30/2020 04:00 to 3:10 88.47 88.41 89.24 87.09 87.07 87.01
9/30/2020 03:00 to 2:10 89.11 88.02 87.98 88.78 88.66 89.36
9/30/2020 02:00 to 1:10 88.52 88.66 89.05 88.68 89.34 89.61
9/30/2020 01:00 to 0:10 89.01 88.78 89.77 90.41 89.73 89.96

 

 

 

Air Temperature [°C]     6 entries per hour
Showing data from 10/1/2020 (23:00:00 Z) to 9/30/2020 (00:00:01 Z)
Previous Next [ Day | 3-Days | 7-Days ]
First Last
Prev [ Day | 3-Days | 7-Days ] Next
First Last

Start Time:     :
End Time:     :     
Time (in GMT) :00 :50 :40 :30 :20 :10
Previous Next [ Day | 3-Days | 7-Days ]
First Last
Prev [ Day | 3-Days | 7-Days ] Next
First Last


123 => good data
MM => data is determined as missing
-- => data not received/configured
Back to Top Back to Top
10/1/2020 23:00 to 22:10 20.74 20.82 20.73 20.68 20.74 20.80
10/1/2020 22:00 to 21:10 20.74 20.75 20.57 20.61 20.71 20.75
10/1/2020 21:00 to 20:10 20.85 20.74 20.72 20.56 20.27 20.83
10/1/2020 20:00 to 19:10 20.84 20.81 20.72 20.64 20.77 20.86
10/1/2020 19:00 to 18:10 20.84 20.80 20.63 20.33 20.29 20.77
10/1/2020 18:00 to 17:10 20.58 20.73 20.85 20.52 20.58 20.72
10/1/2020 17:00 to 16:10 20.66 20.38 20.04 19.73 19.90 20.49
10/1/2020 16:00 to 15:10 20.80 20.80 20.78 20.66 20.84 20.77
10/1/2020 15:00 to 14:10 20.69 20.86 20.37 20.26 20.58 20.91
10/1/2020 14:00 to 13:10 20.81 20.58 20.67 20.69 20.67 20.44
10/1/2020 13:00 to 12:10 20.38 20.23 20.28 20.72 20.53 20.59
10/1/2020 12:00 to 11:10 20.62 20.62 20.67 20.66 20.51 20.51
10/1/2020 11:00 to 10:10 20.41 20.17 20.26 20.58 20.57 20.50
10/1/2020 10:00 to 9:10 20.79 20.83 20.81 20.81 20.82 20.79
10/1/2020 09:00 to 8:10 20.91 20.90 20.87 20.69 20.86 20.89
10/1/2020 08:00 to 7:10 20.88 20.96 20.97 20.88 20.90 20.86
10/1/2020 07:00 to 6:10 21.00 20.93 20.94 21.00 21.01 21.11
10/1/2020 06:00 to 5:10 21.01 21.08 21.08 21.14 21.09 21.14
10/1/2020 05:00 to 4:10 21.08 21.17 21.16 21.24 21.22 21.18
10/1/2020 04:00 to 3:10 21.25 21.20 21.23 21.33 21.28 21.21
10/1/2020 03:00 to 2:10 21.25 21.24 21.15 21.28 21.25 21.29
10/1/2020 02:00 to 1:10 21.28 21.27 21.28 21.23 21.32 21.14
10/1/2020 01:00 to 0:10 21.28 21.25 21.21 21.25 21.29 21.15
10/1/2020 00:00 to 23:10 21.19 21.24 21.23 21.19 21.20 21.35
9/30/2020 23:00 to 22:10 21.17 21.33 21.24 21.19 21.30 21.27
9/30/2020 22:00 to 21:10 21.22 21.30 21.26 21.36 21.18 21.39
9/30/2020 21:00 to 20:10 21.23 21.25 21.20 21.24 21.19 21.16
9/30/2020 20:00 to 19:10 21.23 21.11 21.08 21.20 21.13 21.21
9/30/2020 19:00 to 18:10 21.40 21.14 21.16 21.34 21.26 21.09
9/30/2020 18:00 to 17:10 21.19 21.17 21.13 21.16 21.18 21.11
9/30/2020 17:00 to 16:10 21.05 21.07 21.06 21.10 21.16 21.06
9/30/2020 16:00 to 15:10 21.03 21.10 21.13 21.16 21.17 21.12
9/30/2020 15:00 to 14:10 21.14 21.02 21.17 21.06 21.06 21.04
9/30/2020 14:00 to 13:10 21.07 21.03 21.05 20.97 21.04 20.93
9/30/2020 13:00 to 12:10 21.00 20.97 20.89 20.89 20.90 20.87
9/30/2020 12:00 to 11:10 20.92 21.07 21.10 20.97 20.97 20.99
9/30/2020 11:00 to 10:10 21.02 21.03 20.94 20.87 20.83 20.94
9/30/2020 10:00 to 9:10 21.07 20.97 20.96 21.06 20.99 20.94
9/30/2020 09:00 to 8:10 20.89 20.92 20.98 21.07 20.96 21.00
9/30/2020 08:00 to 7:10 21.06 20.95 21.05 21.01 21.08 21.03
9/30/2020 07:00 to 6:10 21.07 21.01 21.04 20.94 20.93 20.83
9/30/2020 06:00 to 5:10 20.90 20.82 20.76 20.88 20.89 20.99
9/30/2020 05:00 to 4:10 20.94 20.89 20.88 20.85 20.96 20.83
9/30/2020 04:00 to 3:10 20.86 20.69 20.87 20.84 20.88 20.84
9/30/2020 03:00 to 2:10 20.90 20.84 20.78 20.85 20.91 20.84
9/30/2020 02:00 to 1:10 20.83 20.81 20.79 20.80 20.75 20.90
9/30/2020 01:00 to 0:10 20.85 20.75 20.69 20.76 20.64 20.58